DW9721 Weather Reports


time (UTC)temp
C
wind
direction
speed
KPH
gust
KPH
rain 1hr
cm
rain 24hr
cm
rain mn
cm
humidity
%
barometer
mb
20260505063537 8 0.0 0.0 0.00 0.48 0.00 91 1012.0
20260505062517 8 0.0 0.0 0.00 0.48 0.00 91 1012.0
20260505061537 8 0.0 3.2 0.00 0.48 0.00 91 1012.1
20260505060537 8 0.0 3.2 0.00 0.48 0.00 91 1011.9
20260505055536 8 0.0 1.6 0.00 0.48 0.48 91 1011.9
20260505054516 8 0.0 0.0 0.00 0.48 0.48 91 1011.6
20260505053636 8 225 1.6 3.2 0.03 0.48 0.48 90 1011.5
20260505052516 8 0.0 0.0 0.03 0.48 0.48 90 1011.4
20260505051516 8 225 1.6 3.2 0.03 0.48 0.48 89 1010.6
20260505050515 8 0.0 0.0 0.03 0.48 0.48 89 1010.6
20260505041515 8 0.0 3.2 0.20 0.46 0.46 89 1010.7
20260505040515 8 225 1.6 3.2 0.28 0.46 0.46 89 1010.7
20260505035515 8 225 1.6 4.8 0.36 0.46 0.46 89 1010.5
20260505034516 8 203 1.6 6.4 0.41 0.43 0.43 89 1010.2
20260505033515 8 225 3.2 8.0 0.33 0.33 0.33 89 1010.4
20260505032516 9 225 3.2 6.4 0.30 0.30 0.30 88 1010.6
20260505031536 9 225 4.8 9.7 0.25 0.25 0.25 87 1009.7
20260505030516 9 248 6.4 14.5 0.18 0.18 0.18 84 1009.7
20260505025516 10 248 6.4 19.3 0.10 0.10 0.10 81 1009.4
20260505024515 10 248 3.2 8.0 0.03 0.03 0.03 76 1009.1
20260505023516 10 293 1.6 1.6 0.00 0.00 0.00 74 1008.9
20260505022515 10 293 3.2 4.8 0.00 0.00 0.00 73 1008.7
20260505021535 10 293 4.8 6.4 0.00 0.00 0.00 72 1007.9
20260505020516 11 315 4.8 9.7 0.00 0.00 0.00 72 1007.9
20260505015516 11 338 6.4 11.3 0.00 0.00 0.00 71 1008.0
20260505014516 11 315 4.8 9.7 0.00 0.00 0.00 66 1007.1
20260505013515 11 315 4.8 8.0 0.00 0.00 0.00 65 1006.8
20260505012516 12 315 9.7 14.5 0.00 0.00 0.00 62 1007.2
20260505011515 13 338 14.5 27.4 0.00 0.00 0.00 60 1007.1
20260505010516 13 338 19.3 30.6 0.00 0.00 0.00 57 1007.1
20260505005555 13 338 6.4 9.7 0.00 0.00 0.00 61 1006.7
20260505004535 13 315 4.8 8.0 0.00 0.00 0.00 60 1006.6
20260505003515 13 315 3.2 6.4 0.00 0.00 0.00 60 1006.5
20260505002516 13 0.0 3.2 0.00 0.00 0.00 59 1006.3
20260505001515 13 338 4.8 8.0 0.00 0.00 0.00 59 1005.9
20260505000515 13 338 4.8 8.0 0.00 0.00 0.00 60 1005.9
20260504235515 13 315 6.4 9.7 0.00 0.00 0.00 59 1006.0
20260504234515 14 338 9.7 14.5 0.00 0.00 0.00 56 1006.2
20260504233515 15 338 8.0 14.5 0.00 0.00 0.00 46 1006.3
20260504232516 15 293 4.8 8.0 0.00 0.00 0.00 50 1006.3
20260504231516 15 225 1.6 6.4 0.00 0.00 0.00 51 1006.3
20260504230516 16 225 3.2 11.3 0.00 0.00 0.00 47 1006.2
20260504225515 16 270 6.4 11.3 0.00 0.00 0.00 43 1006.4
20260504224516 16 270 8.0 11.3 0.00 0.00 0.00 43 1006.5
20260504223515 16 270 3.2 6.4 0.00 0.00 0.00 41 1006.2
20260504222516 17 23 1.6 4.8 0.00 0.00 0.00 41 1006.1
20260504221516 17 0 4.8 9.7 0.00 0.00 0.00 39 1006.1
20260504220515 16 45 8.0 16.1 0.00 0.00 0.00 39 1005.8
20260504215516 16 0 17.7 27.4 0.00 0.00 0.00 44 1005.9
20260504214516 17 0 20.9 27.4 0.00 0.00 0.00 43 1005.6
20260504213516 17 338 29.0 41.8 0.00 0.00 0.00 42 1006.2
20260504212515 17 338 30.6 43.5 0.00 0.00 0.00 39 1006.3
20260504211515 17 0 29.0 38.6 0.00 0.00 0.00 37 1006.6
20260504210536 16 338 22.5 38.6 0.00 0.00 0.00 45 1006.6
20260504205556 16 338 22.5 35.4 0.00 0.00 0.00 41 1006.3
20260504204535 18 338 19.3 27.4 0.00 0.00 0.00 34 1007.2
20260504203535 20 225 3.2 9.7 0.00 0.00 0.00 29 1007.6
20260504202616 20 135 4.8 9.7 0.00 0.00 0.00 28 1006.9
20260504201516 20 180 4.8 17.7 0.00 0.00 0.00 28 1006.8
20260504200515 20 135 3.2 14.5 0.00 0.00 0.00 26 1007.4
20260504195515 21 338 11.3 22.5 0.00 0.00 0.00 26 1007.4
20260504194515 21 338 20.9 27.4 0.00 0.00 0.00 23 1007.4
20260504193515 22 293 11.3 30.6 0.00 0.00 0.00 24 1007.9
20260504192536 23 270 4.8 8.0 0.00 0.00 0.00 18 1007.5
20260504191535 22 293 6.4 11.3 0.00 0.00 0.00 20 1007.5
20260504190515 22 293 9.7 16.1 0.00 0.00 0.00 17 1007.1
20260504185515 22 270 6.4 11.3 0.00 0.00 0.00 19 1007.1
20260504184515 22 270 8.0 17.7 0.00 0.00 0.00 21 1007.6
20260504183515 22 293 9.7 16.1 0.00 0.00 0.00 20 1007.8
20260504182515 22 293 8.0 16.1 0.00 0.00 0.00 22 1007.9
20260504181515 22 270 8.0 17.7 0.00 0.00 0.00 23 1008.2
20260504180515 22 293 9.7 19.3 0.00 0.00 0.00 23 1008.3
20260504175555 21 270 8.0 14.5 0.00 0.00 0.00 23 1008.5
20260504174515 21 293 9.7 24.1 0.00 0.00 0.00 26 1009.1
20260504173515 21 270 9.7 19.3 0.00 0.00 0.00 26 1009.2
20260504172516 20 270 9.7 14.5 0.00 0.00 0.00 26 1008.9
20260504171515 20 270 8.0 16.1 0.00 0.00 0.00 28 1009.5
20260504170516 20 270 9.7 22.5 0.00 0.00 0.00 27 1009.5
20260504150515 16 225 4.8 11.3 0.00 0.00 0.00 32 1009.2
20260504140515 12 225 3.2 8.0 0.00 0.00 0.00 35 1008.9
20260504130515 8 0.0 3.2 0.00 0.00 0.00 52 1007.4
20260504110517 7 0.0 0.0 0.00 0.00 0.00 50 1007.3
20260504100517 8 0.0 0.0 0.00 0.00 0.00 45 1008.6
20260504081517 11 0.0 3.2 0.00 0.00 0.00 35 1010.0
20260504080517 11 270 1.6 3.2 0.00 0.00 0.00 36 1010.0